Regional Weather Roundup
Issued by NWS Little Rock, AR

Home | Current Version | Previous Version | Text Only | Print | Product List | Glossary Off
Versions: 1 2 3 4 5 6 7 8 9 10 11 12 13 14 15 16 17 18 19 20 21 22 23 24 25 26 27 28 29 30 31 32

000
ASUS44 KLZK 191005
RWRLZK

WEATHER ROUNDUP FOR ARKANSAS
NATIONAL WEATHER SERVICE LITTLE ROCK AR
400 AM CST THU JAN 19 2017

NOTE: "FAIR" INDICATES FEW OR NO CLOUDS BELOW 12,000 FEET WITH NO
SIGNIFICANT WEATHER AND/OR OBSTRUCTIONS TO VISIBILITY.

ARZ001-003-010-029-191100-
NORTHWEST ARKANSAS

CITY           SKY/WX    TMP DP  RH WIND       PRES   REMARKS
FAYETTEVILLE   CLOUDY    47  47 100 NW5       29.89F
FORT SMITH     CLOUDY    46  44  93 NE5       29.91F FOG
HARRISON       FOG       42  42 100 SE12      29.88F VSB 1/4
BENTONVILLE    CLOUDY   N/A N/A N/A CALM      29.88F
ROGERS         LGT RAIN  45  45 100 CALM      29.89F FOG
SILOAM SPGS    CLOUDY    46  45  93 CALM      29.88F
HIGHFILL       CLOUDY    47  47 100 CALM      29.88F FOG
$$

ARZ004-005-016-191100-
NORTH CENTRAL ARKANSAS

CITY           SKY/WX    TMP DP  RH WIND       PRES   REMARKS
BATESVILLE     CLOUDY    45  43  93 CALM      29.94F
FLIPPIN        CLOUDY    43  39  87 E5        29.89F
MTN HOME       CLOUDY    42  42 100 SE5       29.90F FOG
$$

ARZ040-041-191100-
WEST CENTRAL ARKANSAS

CITY           SKY/WX    TMP DP  RH WIND       PRES   REMARKS
MENA           CLOUDY    48  46  93 CALM      29.90F
MOUNT IDA      CLOUDY    48  46  93 CALM      29.87F FOG
$$

ARZ009-017-025-026-028-191100-
NORTHEAST ARKANSAS

CITY           SKY/WX    TMP DP  RH WIND       PRES   REMARKS
CORNING        CLOUDY    45  45 100 NE8       29.94F FOG
JONESBORO      CLOUDY    47  45  93 NE13      29.91F
NEWPORT        RAIN      46  45  96 NE7       29.92F FOG
WALNUT RIDGE   CLOUDY    45  43  93 NE9       29.92F
BLYTHEVILLE    CLOUDY    48  46  93 E7        29.94F
$$

ARZ022-023-033-042-044-191100-
CENTRAL ARKANSAS

CITY           SKY/WX    TMP DP  RH WIND       PRES   REMARKS
LITTLE ROCK    DRZL/FOG  46  46 100 N3        29.93F VSB 1
N LITTLE ROCK    N/A     46  45  97 CALM      29.94F
JACKSONVILLE   DRIZZLE   46  46 100 CALM      29.91F FOG
SEARCY         LGT RAIN  46  46 100 N3        29.94F FOG
HOT SPRINGS    CLOUDY    48  48 100 E3        29.91F
RUSSELLVILLE   CLOUDY    46  45  96 CALM      29.92F FOG
CLINTON        CLOUDY    46  45  93 CALM      29.92F FOG
$$

ARZ036-191100-
EAST ARKANSAS

CITY           SKY/WX    TMP DP  RH WIND       PRES   REMARKS
WEST MEMPHIS   CLOUDY    53  53 100 E6        29.90F FOG
$$

ARZ050-053-066-070-073-191100-
SOUTHWEST ARKANSAS

CITY           SKY/WX    TMP DP  RH WIND       PRES   REMARKS
ARKADELPHIA    CLOUDY    48  48 100 CALM      29.92F FOG
CAMDEN         CLOUDY    48  46  93 N5        29.91F FOG
TEXARKANA      CLOUDY    48  48 100 CALM      29.90F
EL DORADO      CLOUDY    50  50 100 NW5       29.90F FOG
DE QUEEN       CLOUDY    49  49 100 CALM      29.89F FOG
$$

ARZ056-057-069-191100-
SOUTHEAST ARKANSAS

CITY           SKY/WX    TMP DP  RH WIND       PRES   REMARKS
PINE BLUFF     CLOUDY    48  48 100 NW7       29.91F FOG
STUTTGART      CLOUDY    48  43  81 N3        29.91F
MONTICELLO     FOG       51  51 100 CALM      29.88F VSB 3/4

$$






USA.gov is the U.S. government's official web portal to all federal, state and local government web resources and services.